Change the Weather History Date:

Monday, June 24, 2013

  Actual Average Record
Temperature  
Mean Temperature 63 °F 60 °F  
Max Temperature 81 °F 74 °F 93 °F (1900)
Min Temperature 45 °F 47 °F 33 °F (1905)
Degree Days  
Heating Degree Days 2 6  
Month to date heating degree days 219 197  
Since 1 June heating degree days 219 197  
Since 1 July heating degree days 8068 8171  
Cooling Degree Days 0 1  
Month to date cooling degree days 4 10  
Year to date cooling degree days 7 12  
Since 1 June cooling degree days 4 10  
Growing Degree Days 13 (Base 50)    
Moisture  
Dew Point 50 °F    
Average Humidity 61    
Maximum Humidity 86    
Minimum Humidity 36    
Precipitation  
Precipitation 0.03 in 0.09 in 2.16 in (1962)
Month to date precipitation 4.56 2.58  
Year to date precipitation 14.19 8.84  
Snow  
Snow 0.00 in - - ()
Snow Depth 0.00 in    
Sea Level Pressure  
Sea Level Pressure 29.62 in    
Wind  
Wind Speed 9 mph (SSE)    
Max Wind Speed 35 mph    
Max Gust Speed 41 mph    
Visibility 10 miles    
Events Rain    
T = Trace of Precipitation, MM = Missing Value Source: NWS Daily Summary

Daily Weather History Graph

Daily Weather History Graph

Search for Another Location

Airport or City:

Trip Planner

Search our weather history database for the weather conditions in past years. The results will help you decide how hot, cold, wet, or windy it might be!

Date:

Astronomy

Jun. 24, 2013 Rise Set
Actual Time 5:23 AM MDT 9:17 PM MDT
Civil Twilight 4:43 AM MDT 9:57 PM MDT
Nautical Twilight 3:48 AM MDT 10:51 PM MDT
Astronomical Twilight 2:26 AM MDT 12:14 AM MDT
Moon 10:12 PM MDT (6/24) 7:02 AM MDT (6/24)
Length of Visible Light 17h 13m
Length of Day
15h 53m
Full, 97% of the Moon is Illuminated
Jun 24
Full
Jun 29
Last Quarter
Jul 8
New
Jul 15
First Quarter
Jul 22
Full

Hourly Weather History & Observations

Time (MDT) Temp. Windchill Dew Point Humidity Pressure Visibility Wind Dir Wind Speed Gust Speed Precip Events Conditions
12:54 AM 52.0 °F - 46.0 °F 80% 29.72 in 10.0 mi ESE 4.6 mph - N/A   Mostly Cloudy
1:54 AM 53.1 °F - 45.0 °F 74% 29.70 in 10.0 mi ESE 9.2 mph - N/A   Clear
2:54 AM 50.0 °F - 44.1 °F 80% 29.69 in 10.0 mi Calm Calm - N/A   Clear
3:54 AM 48.9 °F - 44.1 °F 83% 29.68 in 10.0 mi SE 3.5 mph - N/A   Clear
4:54 AM 46.0 °F 43.9 °F 43.0 °F 89% 29.67 in 10.0 mi South 4.6 mph - N/A   Clear
5:54 AM 46.0 °F 43.9 °F 43.0 °F 89% 29.67 in 10.0 mi SSE 4.6 mph - N/A   Clear
6:54 AM 54.0 °F - 46.9 °F 77% 29.65 in 10.0 mi Calm Calm - N/A   Clear
7:54 AM 57.9 °F - 48.0 °F 70% 29.64 in 10.0 mi Calm Calm - N/A   Clear
8:54 AM 61.0 °F - 51.1 °F 70% 29.64 in 10.0 mi SE 3.5 mph - N/A   Clear
9:54 AM 66.9 °F - 48.9 °F 52% 29.63 in 10.0 mi Calm Calm - N/A   Clear
10:54 AM 73.0 °F - 54.0 °F 51% 29.61 in 10.0 mi NNE 4.6 mph - N/A   Clear
11:54 AM 72.0 °F - 53.1 °F 51% 29.60 in 10.0 mi East 12.7 mph - N/A   Clear
12:54 PM 73.0 °F - 55.0 °F 53% 29.58 in 10.0 mi East 19.6 mph 23.0 mph N/A   Clear
1:54 PM 77.0 °F - 53.1 °F 43% 29.55 in 10.0 mi East 11.5 mph 20.7 mph N/A   Clear
2:54 PM 80.1 °F - 52.0 °F 38% 29.54 in 10.0 mi East 17.3 mph 24.2 mph N/A   Clear
3:54 PM 78.1 °F - 52.0 °F 40% 29.54 in 10.0 mi East 10.4 mph - N/A   Clear
4:54 PM 71.1 °F - 46.0 °F 41% 29.60 in 10.0 mi SSW 25.3 mph 38.0 mph N/A   Mostly Cloudy
5:54 PM 73.9 °F - 51.1 °F 45% 29.56 in 10.0 mi SSE 5.8 mph - 0.00 in   Clear
6:54 PM 75.9 °F - 52.0 °F 43% 29.53 in 10.0 mi ESE 9.2 mph - N/A   Clear
7:42 PM 66.2 °F - 46.4 °F 49% 29.72 in 10.0 mi West 18.4 mph 32.2 mph N/A   Overcast
7:54 PM 63.0 °F - 52.0 °F 67% 29.64 in 10.0 mi West 15.0 mph 29.9 mph 0.00 in Rain Light Rain
8:54 PM 62.1 °F - 53.1 °F 72% 29.59 in 10.0 mi SSE 8.1 mph - 0.00 in   Mostly Cloudy
9:54 PM 59.0 °F - 53.1 °F 81% 29.60 in 10.0 mi SW 8.1 mph - N/A   Overcast
10:54 PM 59.0 °F - 53.1 °F 81% 29.60 in 9.0 mi SW 18.4 mph 26.5 mph 0.03 in Rain Light Rain
11:54 PM 57.9 °F - 52.0 °F 81% 29.62 in 10.0 mi SW 19.6 mph 23.0 mph 0.00 in   Scattered Clouds